Location: Haliburton Scout Reserve
(45.0900°N, 78.3200°W)
Time: 23:47:09
(UTC-04:00)

N. Korean satellite - Visible Passes

Search period start: 21 March 2023 00:00
Search period end: 31 March 2023 00:00
Orbit: 395 x 419 km, 97.3° (Epoch: 21 March)

Date Brightness Start Highest point End Pass type
(mag) Time Alt. Az. Time Alt. Az. Time Alt. Az.
21 Mar 6.3 06:44:40 10° NNE 06:47:52 83° E 06:50:59 10° S visible
22 Mar 9.4 05:57:23 10° NE 05:59:36 17° E 06:01:47 10° SE visible
23 Mar 6.6 06:40:16 10° NNE 06:43:26 71° ESE 06:46:33 10° S visible
24 Mar 9.4 05:53:00 10° NE 05:54:56 15° E 05:56:50 10° SE visible
25 Mar 6.9 06:35:27 10° NNE 06:38:34 58° E 06:41:38 10° S visible
26 Mar 9.6 05:48:17 10° ENE 05:49:48 13° E 05:51:20 10° ESE visible
27 Mar 7.4 06:30:12 10° NNE 06:33:16 47° E 06:36:16 10° S visible
28 Mar 9.8 05:43:24 10° ENE 05:44:16 11° E 05:45:08 10° ESE visible
29 Mar 7.9 06:24:34 10° NNE 06:27:31 38° E 06:30:26 10° S visible
